Meteo pe oră la Dzialyn

Astăzi, 5 Martie, Vineri

Timp Temperatura Precipitaţii Vânt Presiune Umiditate
00:00 -2°C° 0.1 mm 4 m/s 751 mmHg 89%
01:00 -3°C° 0 mm 4 m/s 751 mmHg 88%
02:00 -2°C° 0 mm 3 m/s 751 mmHg 87%
03:00 -4°C° 0 mm 3 m/s 752 mmHg 87%
04:00 -4°C° 0 mm 3 m/s 752 mmHg 86%
05:00 -4°C° 0 mm 3 m/s 752 mmHg 86%
06:00 -4°C° 0 mm 3 m/s 753 mmHg 86%
07:00 -4°C° 0 mm 3 m/s 753 mmHg 86%
08:00 -2°C° 0 mm 3 m/s 754 mmHg 77%
09:00 -1°C° 0 mm 3 m/s 754 mmHg 69%
10:00 0°C° 0 mm 3 m/s 754 mmHg 61%
11:00 0°C° 0.1 mm 4 m/s 755 mmHg 57%
12:00 +1°C° 0.1 mm 4 m/s 755 mmHg 53%
13:00 +1°C° 0.1 mm 4 m/s 755 mmHg 49%
14:00 +1°C° 0.1 mm 4 m/s 755 mmHg 48%
15:00 +1°C° 0.1 mm 4 m/s 756 mmHg 47%
16:00 +1°C° 0.1 mm 4 m/s 756 mmHg 46%
17:00 0°C° 0 mm 4 m/s 756 mmHg 52%
18:00 0°C° 0 mm 3 m/s 757 mmHg 58%
19:00 -1°C° 0 mm 3 m/s 757 mmHg 64%
20:00 -2°C° 0 mm 3 m/s 758 mmHg 67%
21:00 -2°C° 0 mm 3 m/s 758 mmHg 70%
22:00 -2°C° 0 mm 3 m/s 759 mmHg 72%
23:00 -2°C° 0 mm 3 m/s 759 mmHg 74%

Mâine, 6 Martie, Sâmbătă

Timp Temperatura Precipitaţii Vânt Presiune Umiditate
00:00 -4°C° 0 mm 3 m/s 760 mmHg 75%
01:00 -3°C° 0 mm 2 m/s 760 mmHg 76%
02:00 -3°C° 0 mm 2 m/s 760 mmHg 76%
03:00 -3°C° 0 mm 2 m/s 760 mmHg 76%
04:00 -4°C° 0 mm 3 m/s 760 mmHg 75%
05:00 -4°C° 0 mm 3 m/s 760 mmHg 75%
06:00 -4°C° 0 mm 3 m/s 761 mmHg 75%
07:00 -4°C° 0 mm 3 m/s 761 mmHg 74%
08:00 -1°C° 0 mm 3 m/s 761 mmHg 67%
09:00 0°C° 0 mm 3 m/s 761 mmHg 61%
10:00 0°C° 0 mm 4 m/s 761 mmHg 54%
11:00 +1°C° 0 mm 4 m/s 761 mmHg 50%
12:00 +2°C° 0 mm 5 m/s 760 mmHg 45%
13:00 +2°C° 0 mm 5 m/s 760 mmHg 40%
14:00 +2°C° 0 mm 5 m/s 760 mmHg 43%
15:00 +2°C° 0 mm 5 m/s 759 mmHg 46%
16:00 +2°C° 0 mm 6 m/s 759 mmHg 49%
17:00 +1°C° 0 mm 5 m/s 758 mmHg 56%
18:00 0°C° 0 mm 5 m/s 758 mmHg 63%
19:00 -1°C° 0 mm 5 m/s 758 mmHg 70%
20:00 -1°C° 0 mm 5 m/s 758 mmHg 77%
21:00 -2°C° 0 mm 6 m/s 758 mmHg 83%
22:00 -2°C° 0 mm 6 m/s 758 mmHg 89%
23:00 -2°C° 0 mm 6 m/s 757 mmHg 88%

Poimâine, 7 Martie, Duminică

Timp Temperatura Precipitaţii Vânt Presiune Umiditate
00:00 -2°C° 0 mm 6 m/s 757 mmHg 87%
01:00 -2°C° 0 mm 6 m/s 757 mmHg 86%
02:00 -2°C° 0 mm 7 m/s 756 mmHg 82%
03:00 -2°C° 0 mm 7 m/s 756 mmHg 79%
04:00 -2°C° 0 mm 7 m/s 755 mmHg 75%
05:00 -3°C° 0 mm 7 m/s 755 mmHg 76%
06:00 -3°C° 0 mm 7 m/s 755 mmHg 77%
07:00 -3°C° 0 mm 7 m/s 755 mmHg 78%
08:00 -3°C° 0 mm 7 m/s 754 mmHg 76%
09:00 -2°C° 0 mm 8 m/s 754 mmHg 74%
10:00 -2°C° 0 mm 8 m/s 754 mmHg 72%
11:00 -1°C° 0 mm 8 m/s 754 mmHg 70%
12:00 -1°C° 0 mm 8 m/s 754 mmHg 69%
13:00 0°C° 0 mm 8 m/s 753 mmHg 67%
14:00 -1°C° 0 mm 8 m/s 753 mmHg 68%
15:00 -1°C° 0 mm 7 m/s 752 mmHg 69%
16:00 -1°C° 0 mm 7 m/s 752 mmHg 70%
17:00 -2°C° 0 mm 7 m/s 751 mmHg 73%
18:00 -2°C° 0 mm 6 m/s 751 mmHg 76%
19:00 -2°C° 0 mm 6 m/s 751 mmHg 79%
20:00 -3°C° 0 mm 6 m/s 751 mmHg 81%
21:00 -3°C° 0 mm 6 m/s 751 mmHg 83%
22:00 -3°C° 0 mm 6 m/s 750 mmHg 86%
23:00 -2°C° 0.1 mm 6 m/s 750 mmHg 88%

8 Martie, Luni

Timp Temperatura Precipitaţii Vânt Presiune Umiditate
00:00 -2°C° 0.1 mm 6 m/s 750 mmHg 90%
01:00 -2°C° 0.1 mm 6 m/s 750 mmHg 93%
02:00 -2°C° 0.3 mm 5 m/s 750 mmHg 93%
03:00 -2°C° 0.3 mm 4 m/s 750 mmHg 94%
04:00 -2°C° 0.3 mm 3 m/s 750 mmHg 94%
05:00 -2°C° 0.1 mm 3 m/s 750 mmHg 92%
06:00 -3°C° 0.1 mm 2 m/s 751 mmHg 89%
07:00 -3°C° 0.1 mm 2 m/s 751 mmHg 87%
08:00 -2°C° 0 mm 3 m/s 751 mmHg 76%
09:00 -2°C° 0 mm 4 m/s 752 mmHg 66%
10:00 -1°C° 0 mm 4 m/s 752 mmHg 55%
11:00 0°C° 0 mm 4 m/s 753 mmHg 54%
12:00 0°C° 0 mm 4 m/s 753 mmHg 54%
13:00 +1°C° 0 mm 5 m/s 754 mmHg 53%
14:00 +1°C° 0 mm 4 m/s 754 mmHg 54%
15:00 0°C° 0 mm 4 m/s 754 mmHg 55%
16:00 0°C° 0 mm 4 m/s 754 mmHg 56%
17:00 -1°C° 0 mm 4 m/s 754 mmHg 62%
18:00 -1°C° 0 mm 3 m/s 755 mmHg 68%
19:00 -2°C° 0 mm 3 m/s 755 mmHg 74%
20:00 -3°C° 0 mm 2 m/s 755 mmHg 76%
21:00 -3°C° 0 mm 2 m/s 756 mmHg 77%
22:00 -3°C° 0 mm 2 m/s 756 mmHg 79%
23:00 -4°C° 0 mm 2 m/s 756 mmHg 78%

9 Martie, Marţi

Timp Temperatura Precipitaţii Vânt Presiune Umiditate
00:00 -4°C° 0 mm 2 m/s 756 mmHg 77%
01:00 -4°C° 0 mm 2 m/s 756 mmHg 77%
02:00 -2°C° 0 mm 1 m/s 756 mmHg 76%
03:00 -2°C° 0 mm 1 m/s 756 mmHg 75%
04:00 -2°C° 0 mm 1 m/s 756 mmHg 74%
05:00 -2°C° 0 mm 1 m/s 756 mmHg 73%
06:00 -2°C° 0 mm 1 m/s 756 mmHg 73%
07:00 -2°C° 0 mm 1 m/s 756 mmHg 72%
08:00 -1°C° 0 mm 1 m/s 756 mmHg 67%
09:00 -2°C° 0 mm 2 m/s 757 mmHg 61%
10:00 -2°C° 0 mm 2 m/s 757 mmHg 55%
11:00 -1°C° 0 mm 2 m/s 757 mmHg 52%
12:00 -1°C° 0 mm 2 m/s 756 mmHg 48%
13:00 +1°C° 0 mm 2 m/s 756 mmHg 44%
14:00 +1°C° 0 mm 2 m/s 756 mmHg 44%
15:00 +1°C° 0 mm 2 m/s 756 mmHg 43%
16:00 +1°C° 0 mm 2 m/s 755 mmHg 43%
17:00 -1°C° 0 mm 2 m/s 755 mmHg 47%
18:00 -2°C° 0 mm 2 m/s 755 mmHg 51%
19:00 -3°C° 0 mm 2 m/s 756 mmHg 55%
20:00 -3°C° 0 mm 2 m/s 756 mmHg 55%
21:00 -3°C° 0 mm 2 m/s 756 mmHg 55%
22:00 -3°C° 0 mm 2 m/s 756 mmHg 56%
23:00 -3°C° 0 mm 2 m/s 756 mmHg 56%

10 Martie, Miercuri

Timp Temperatura Precipitaţii Vânt Presiune Umiditate
00:00 -3°C° 0 mm 2 m/s 755 mmHg 56%
01:00 -3°C° 0 mm 2 m/s 755 mmHg 56%
02:00 -3°C° 0 mm 2 m/s 755 mmHg 57%
03:00 -3°C° 0 mm 2 m/s 755 mmHg 58%
04:00 -3°C° 0 mm 2 m/s 755 mmHg 58%
05:00 -3°C° 0 mm 2 m/s 754 mmHg 59%
06:00 -3°C° 0 mm 2 m/s 754 mmHg 60%
07:00 -4°C° 0 mm 3 m/s 754 mmHg 61%
08:00 -2°C° 0 mm 3 m/s 754 mmHg 59%
09:00 -1°C° 0 mm 4 m/s 754 mmHg 56%
10:00 0°C° 0 mm 4 m/s 754 mmHg 54%
11:00 +1°C° 0 mm 4 m/s 754 mmHg 60%
12:00 +1°C° 0 mm 4 m/s 753 mmHg 66%
13:00 +3°C° 0 mm 4 m/s 753 mmHg 71%
14:00 +3°C° 0 mm 4 m/s 752 mmHg 74%
15:00 +3°C° 0 mm 4 m/s 752 mmHg 76%
16:00 +3°C° 0 mm 4 m/s 751 mmHg 78%
17:00 +1°C° 0 mm 4 m/s 751 mmHg 82%
18:00 0°C° 0 mm 4 m/s 750 mmHg 85%
19:00 0°C° 0 mm 4 m/s 750 mmHg 88%
20:00 0°C° 0 mm 4 m/s 749 mmHg 86%
21:00 0°C° 0 mm 5 m/s 749 mmHg 85%
22:00 0°C° 0 mm 5 m/s 748 mmHg 83%
23:00 0°C° 0 mm 5 m/s 748 mmHg 81%
Arată mai mult

Formular de consimțământ

Meteoprog și furnizorii noștri de servicii pot stoca și accesa date personale, precum cookies, identificatori de dispozitiv sau alte tehnologii similare pe dispozitivul dumneavoastră și procesa astfel de date pentru a personaliza conținutul și reclamele, dar și pentru a oferi caracteristici de social media și pentru a analiza traficul.

  • Stocarea și/sau accesarea informațiilor pe dispozitivul dumneavoastră

    Cookies, identificatori de dispozitiv sau alte informații pot fi stocate sau accesate pe dispozitiv în scopurile indicate mai sus.

  • Reclame și conținut personalizat, evaluarea reclamelor și a conținutului, informații despre audiențe și dezvoltarea produselor

    Reclamele și conținutul pot fi personalizate pe baza unui profil. Pot fi adăugate date suplimentare pentru a personaliza mai bine reclamele și conținutul. Performanța reclamelor și conținutului poate fi măsurată. Pot fi obținute informații despre utilizatorii care au văzut reclamele și conținutul. Aceste date pot fi utilizate pentru a dezvolta sau îmbunătăți experiența utilizatorilor, sistemele și software-ul.

Dând clic pe ‘Sunt de acord’, permiteți utilizarea cookie-urilor menționate, a identificatorilor de dispozitiv, balizelor web sau altor tehnologii similare. Setările pot fi modificate din browser-ul dispozitivului dumneavoastră.

În anumite scopuri, interesele legitime pot prima asupra consimțământului. Puteți citi mai multe informații în acest sens în Politica privind Confidențialitatea Datelor și Cookie.